Showing default

PTD-4, 60565

Orbit data source: Space-Track

PTD-4, 60565 is an American payload satellite in SSO that was launched on Fri, 16 Aug 2024 UTC via an FALCON 9 launch vehicle from the Air Force Western Test Range (AFWTR). Payload-class satellites include a variety of spacecraft equipped with specific instruments for various scientific and technological missions. These include communications satellites like Starlink; space stations such as the ISS; scientific satellites like the Hubble; Earth observation satellites from companies like Planet Labs, Umbra, and HawkEye 360; GPS; miniature CubeSats for education and research; and military/defense satellites.

Loading next visibility...
Identifier
60565, 2024-149DB
Orbit
SSO
Country
Flag of USUS
Related business
Manufacturer
Terran Orbital
Mission
Operational Civil Technology
Bus & Motor
CUBESAT 6U, Unknown motor
Mass
~10 kg wet, ~10 kg dry
Launch date (UTC)
2024-08-16 (1 year ago)
Launch vehicle
FALCON 9
Launch site
Air Force Western Test Range (AFWTR)
Object type
Payload
Rocket body
Debris
Shape & HBR
Box + 2 Pan, 1.1 m
Radar Cross Section
0.189 m², Medium (>0.1 m² and < 1m²)

Expand to show TLE details & history
Last TLE update: 5 hours ago

TLE from 5 hours ago
0 PTD-4
1 60565U 24149DB  26035.15855339  .00024804  00000-0  12860-2 0  9994
2 60565  97.7043 121.5093 0003802 140.4168 219.7343 15.16149103 80628
Epoch: 2026-02-04T03:48Z
TLE epoch observation values (Epoch: 2026-02-04T03:48:19.012Z)
Latitude
0.00001°
Longitude
-69.89907°
Altitude
522.586 km
Speed
7.601 km/s
True Right ascension
08h 06m 02s
True Declination
0° 00' 00"
Sunlit
Object was in full shadow at epoch
Visualization orbit readout
Latitude
Unknown
Longitude
Unknown
Altitude
Unknown
Speed
Unknown
Apparent Right ascension
Unknown
Apparent Declination
Unknown
Sunlit
N/A
Visualization observer readout
Local Sidereal Time
10:42:35
Azimuth
Unknown
Elevation
Unknown
Doppler factor
Unknown
Orbital elements
Apogee altitude
517.097 km
Perigee altitude
511.856 km
Semi-major axis
6,892.613 km
Eccentricity
0.00038
Inclination
97.7043°
RAAN
121.5093°
Arg. of periapsis
140.4168°
True anomaly
219.70646°
Mean anomaly
219.7343°
Eccentric anomaly
219.72038°
Mean motion
3.79286 °/min
Orbital period
94.92 mins
BSTAR
0.001286
Loading maneuver chart data...
Computing Atmospheric mass density...
Loading historical data...
Loading historical data...
Loading historical data...
Loading historical data...
Loading historical data...
Loading historical data...
Loading historical data...

Documentation

Showing up to 5 results
|